{"data":{"norad_id":65677,"intl_designator":"2025-212B","name":"STARLINK-35222","alt_names":[],"object_type":"PAYLOAD","status":"ACTIVE","operator":null,"country":"US","launch_date":"2025-09-21","launch_site_code":"AFETR","launch_vehicle":null,"mission":null,"orbit_class":"UNKNOWN","rcs_meters":null,"size_class":null,"mass_kg":null,"dimensions":null,"purposes":["comms"],"wikipedia_slug":null,"has_3d_model":false,"image_url":null,"decayed_at":null,"tle_current":{"epoch":"2026-05-24T23:20:07.730016Z","epoch_age_seconds":73497,"freshness":"FRESH","line1":"1 65677U 25212B   26144.97231169  .00021571  00000+0  73819-3 0  9994","line2":"2 65677  53.1608 351.2871 0001087  85.3998 274.7127 15.30205535 38933","mean_motion":15.30205535,"eccentricity":0.0001087,"inclination_deg":53.1608,"raan_deg":351.2871,"arg_perigee_deg":85.3998,"mean_anomaly_deg":274.7127,"bstar":0.00073819,"rev_number":3893,"period_min":94.105005312244,"perigee_km":474.45358538331,"apogee_km":475.94350053035,"semimajor_km":6853.3355429568,"source":"CELESTRAK","updated_at":"2026-05-25T13:38:20.893520Z"}}}